Kaleen Mc Allister — WDB3847 — position and weather

sailwx.info

Track history (hours):
 
Tides and Currents Weather Stations Pressure Air Temp Water Temp Dewpoint Dewpoint Depression Visibility Wind Speed Wind Dir Waves Ship Positions

Kaleen Mc Allister

Owner: MC ALLISTER TOWING & TRANSPORTATION INC, NEW YORK, NY. More information available from US FCC via Universal Licensing System and Coast Guard Vessel Documentation Center.

Last reported at 2014-Dec-18 16:33 UTC. Time now 2014-Dec-18 17:24 UTC.
Position N 39°16' W 076°35'.

Length 20 m; draft 4 m.

Type: Towing. MMSI: 366891960.

Date/timePositionNaut miles runAvg speedWind from/ knotsBaromVisibWave heightAir tempDewpointWater temp
2014-Dec-18 16:33N 39°16' W 076°35'0 0.0
2014-Dec-18 15:33N 39°16' W 076°35'0 0.0
2014-Dec-18 14:33N 39°16' W 076°35'0 0.0
2014-Dec-18 13:33N 39°16' W 076°35'3 3.0
2014-Dec-18 12:33N 39°14' W 076°32'1 1.3
2014-Dec-18 11:33N 39°13' W 076°32'2 1.7
2014-Dec-18 10:33N 39°15' W 076°33'1 0.7
2014-Dec-18 09:33N 39°15' W 076°33'0 0.0
2014-Dec-18 08:33N 39°15' W 076°33'2 2.4
2014-Dec-18 07:33N 39°13' W 076°35'3 2.9
2014-Dec-18 06:33N 39°12' W 076°31'1 1.1
2014-Dec-18 05:33N 39°13' W 076°32'3 2.9
2014-Dec-18 04:33N 39°15' W 076°35'1 1.1
2014-Dec-18 03:33N 39°16' W 076°35'0 0.0
2014-Dec-18 02:33N 39°16' W 076°35'0 0.0
2014-Dec-18 01:33N 39°16' W 076°35'1 0.9
2014-Dec-18 00:34N 39°16' W 076°34'0 0.1
2014-Dec-17 23:33N 39°15' W 076°34'1 1.0
2014-Dec-17 22:33N 39°16' W 076°35'0 0.0
2014-Dec-17 21:33N 39°16' W 076°35'0 0.0
2014-Dec-17 20:34N 39°16' W 076°35'0 0.0
2014-Dec-17 19:33N 39°16' W 076°35'0 0.0
2014-Dec-17 18:33N 39°16' W 076°35'2 1.9
2014-Dec-17 17:33N 39°15' W 076°33'0 0.1
2014-Dec-17 16:33N 39°15' W 076°34'1 0.8
2014-Dec-17 15:33N 39°15' W 076°34'1 0.9
2014-Dec-17 14:33N 39°16' W 076°35'0 0.0
2014-Dec-17 13:33N 39°16' W 076°35'0 0.0
2014-Dec-17 12:33N 39°16' W 076°35'0 0.0
2014-Dec-17 11:33N 39°16' W 076°35'0 0.0
2014-Dec-17 10:33N 39°16' W 076°35'0 0.0
2014-Dec-17 09:33N 39°16' W 076°35'0 0.0
2014-Dec-17 08:33N 39°16' W 076°35'0 0.0
2014-Dec-17 07:33N 39°16' W 076°35'0 0.0
2014-Dec-17 06:33N 39°16' W 076°35'0 0.0
2014-Dec-17 05:33N 39°16' W 076°35'0 0.0
2014-Dec-17 04:33N 39°16' W 076°35'0 0.0
2014-Dec-17 03:33N 39°16' W 076°35'0 0.0
2014-Dec-17 02:13N 39°16' W 076°35'0 0.0
2014-Dec-17 01:33N 39°16' W 076°35'0 0.0
2014-Dec-17 00:33N 39°16' W 076°35'0 0.0
2014-Dec-16 23:33N 39°16' W 076°35'0 0.0
2014-Dec-16 22:23N 39°16' W 076°35'0 0.0
2014-Dec-16 21:32N 39°16' W 076°35'6 6.4
2014-Dec-16 20:32N 39°12' W 076°29'10 9.0
2014-Dec-16 19:25N 39°12' W 076°16'104 5.8
2014-Dec-16 01:27N 39°34' W 074°05'12 9.2
2014-Dec-16 00:07N 39°45' W 073°59'6 9.6
2014-Dec-15 23:31N 39°51' W 073°58'42 9.7
2014-Dec-15 19:10N 40°33' W 074°01'710.8
2014-Dec-15 18:33N 40°39' W 074°04'4 0.8
2014-Dec-15 13:26N 40°38' W 074°10'  
Track history (hours):
 
Tides and Currents Weather Stations Pressure Air Temp Water Temp Dewpoint Dewpoint Depression Visibility Wind Speed Wind Dir Waves Ship Positions

Kaleen Mc Allister

Owner: MC ALLISTER TOWING & TRANSPORTATION INC, NEW YORK, NY. More information available from US FCC via Universal Licensing System and Coast Guard Vessel Documentation Center.

Last reported at 2014-Dec-18 16:33 UTC. Time now 2014-Dec-18 17:24 UTC.
Position N 39°16' W 076°35'.

Length 20 m; draft 4 m.

Type: Towing. MMSI: 366891960.

Date/timePositionNaut miles runAvg speedWind from/ knotsBaromVisibWave heightAir tempDewpointWater temp
2014-Dec-18 16:33N 39°16' W 076°35'0 0.0
2014-Dec-18 15:33N 39°16' W 076°35'0 0.0
2014-Dec-18 14:33N 39°16' W 076°35'0 0.0
2014-Dec-18 13:33N 39°16' W 076°35'3 3.0
2014-Dec-18 12:33N 39°14' W 076°32'1 1.3
2014-Dec-18 11:33N 39°13' W 076°32'2 1.7
2014-Dec-18 10:33N 39°15' W 076°33'1 0.7
2014-Dec-18 09:33N 39°15' W 076°33'0 0.0
2014-Dec-18 08:33N 39°15' W 076°33'2 2.4
2014-Dec-18 07:33N 39°13' W 076°35'3 2.9
2014-Dec-18 06:33N 39°12' W 076°31'1 1.1
2014-Dec-18 05:33N 39°13' W 076°32'3 2.9
2014-Dec-18 04:33N 39°15' W 076°35'1 1.1
2014-Dec-18 03:33N 39°16' W 076°35'0 0.0
2014-Dec-18 02:33N 39°16' W 076°35'0 0.0
2014-Dec-18 01:33N 39°16' W 076°35'1 0.9
2014-Dec-18 00:34N 39°16' W 076°34'0 0.1
2014-Dec-17 23:33N 39°15' W 076°34'1 1.0
2014-Dec-17 22:33N 39°16' W 076°35'0 0.0
2014-Dec-17 21:33N 39°16' W 076°35'0 0.0
2014-Dec-17 20:34N 39°16' W 076°35'0 0.0
2014-Dec-17 19:33N 39°16' W 076°35'0 0.0
2014-Dec-17 18:33N 39°16' W 076°35'2 1.9
2014-Dec-17 17:33N 39°15' W 076°33'0 0.1
2014-Dec-17 16:33N 39°15' W 076°34'1 0.8
2014-Dec-17 15:33N 39°15' W 076°34'1 0.9
2014-Dec-17 14:33N 39°16' W 076°35'0 0.0
2014-Dec-17 13:33N 39°16' W 076°35'0 0.0
2014-Dec-17 12:33N 39°16' W 076°35'0 0.0
2014-Dec-17 11:33N 39°16' W 076°35'0 0.0
2014-Dec-17 10:33N 39°16' W 076°35'0 0.0
2014-Dec-17 09:33N 39°16' W 076°35'0 0.0
2014-Dec-17 08:33N 39°16' W 076°35'0 0.0
2014-Dec-17 07:33N 39°16' W 076°35'0 0.0
2014-Dec-17 06:33N 39°16' W 076°35'0 0.0
2014-Dec-17 05:33N 39°16' W 076°35'0 0.0
2014-Dec-17 04:33N 39°16' W 076°35'0 0.0
2014-Dec-17 03:33N 39°16' W 076°35'0 0.0
2014-Dec-17 02:13N 39°16' W 076°35'0 0.0
2014-Dec-17 01:33N 39°16' W 076°35'0 0.0
2014-Dec-17 00:33N 39°16' W 076°35'0 0.0
2014-Dec-16 23:33N 39°16' W 076°35'0 0.0
2014-Dec-16 22:23N 39°16' W 076°35'0 0.0
2014-Dec-16 21:32N 39°16' W 076°35'6 6.4
2014-Dec-16 20:32N 39°12' W 076°29'10 9.0
2014-Dec-16 19:25N 39°12' W 076°16'104 5.8
2014-Dec-16 01:27N 39°34' W 074°05'12 9.2
2014-Dec-16 00:07N 39°45' W 073°59'6 9.6
2014-Dec-15 23:31N 39°51' W 073°58'42 9.7
2014-Dec-15 19:10N 40°33' W 074°01'710.8
2014-Dec-15 18:33N 40°39' W 074°04'4 0.8
2014-Dec-15 13:26N 40°38' W 074°10'  

Dump ship's entire track history